Newport News, VA

10:44 PM EDT on October 18, 2017 (GMT -0400)
Newport News-Williamsburg International

Weather History for KPHF - November, 2011

Change the Weather History Date:

Friday, November 25, 2011

  Actual Average Record
Temperature  
Mean Temperature 51 °F -  
Max Temperature 66 °F 59 °F 77 °F (1973)
Min Temperature 36 °F 40 °F 20 °F (1970)
Degree Days  
Heating Degree Days 14    
Growing Degree Days 1 (Base 50)    
Moisture  
Dew Point 36 °F    
Average Humidity 61    
Maximum Humidity 89    
Minimum Humidity 32    
Precipitation  
Precipitation 0.00 in - - ()
Sea Level Pressure  
Sea Level Pressure 30.28 in    
Wind  
Wind Speed 3 mph (SW)    
Max Wind Speed 12 mph    
Max Gust Speed 18 mph    
Visibility 10 miles    
Events      
Averages and records for this station are not official NWS values.
T = Trace of Precipitation, MM = Missing Value Source: NWS Daily Summary

Daily Weather History Graph

Daily Weather History Graph

Search for Another Location

Airport or City:

Trip Planner

Search our weather history database for the weather conditions in past years. The results will help you decide how hot, cold, wet, or windy it might be!

Date:

Astronomy

Nov. 25, 2011 Rise Set
Actual Time 6:54 AM EST 4:50 PM EST
Civil Twilight 6:26 AM EST 5:19 PM EST
Nautical Twilight 5:54 AM EST 5:50 PM EST
Astronomical Twilight 5:23 AM EST 6:22 PM EST
Moon 7:18 AM EST (11/25) 5:17 PM EST (11/25)
Length of Visible Light 10h 52m
Length of Day
9h 55m
New Moon, 0% of the Moon is Illuminated
Nov 25
New Moon
Dec 2
First Quarter
Dec 10
Full
Dec 17
Last Quarter
Dec 24
New

Hourly Weather History & Observations

Time (EST) Temp. Dew Point Humidity Pressure Visibility Wind Dir Wind Speed Gust Speed Precip Events Conditions
12:54 AM 39.9 °F 36.0 °F 86% 30.30 in 10.0 mi Calm Calm - N/A   Clear
1:54 AM 41.0 °F 35.6 °F 81% 30.31 in 10.0 mi Calm Calm - N/A   Clear
2:54 AM 41.0 °F 36.0 °F 82% 30.30 in 10.0 mi Calm Calm - N/A   Clear
3:54 AM 39.0 °F 35.1 °F 86% 30.31 in 10.0 mi Calm Calm - N/A   Clear
4:54 AM 37.4 °F 33.8 °F 87% 30.31 in 10.0 mi Calm Calm - N/A   Clear
5:54 AM 37.0 °F 34.0 °F 89% 30.32 in 10.0 mi Calm Calm - N/A   Clear
6:54 AM 36.0 °F 33.1 °F 89% 30.34 in 10.0 mi Calm Calm - N/A   Clear
7:54 AM 39.9 °F 37.0 °F 89% 30.33 in 10.0 mi Calm Calm - N/A   Clear
8:54 AM 51.1 °F 39.0 °F 63% 30.33 in 10.0 mi WSW 5.8 mph - N/A   Clear
9:54 AM 55.9 °F 39.0 °F 53% 30.33 in 10.0 mi WSW 6.9 mph - N/A   Clear
10:54 AM 60.1 °F 37.0 °F 42% 30.31 in 10.0 mi WSW 6.9 mph - N/A   Clear
11:54 AM 63.0 °F 37.9 °F 40% 30.28 in 10.0 mi WSW 9.2 mph - N/A   Clear
12:54 PM 66.0 °F 36.0 °F 33% 30.26 in 10.0 mi WSW 9.2 mph - N/A   Clear
1:54 PM 66.9 °F 36.0 °F 32% 30.24 in 10.0 mi SW 11.5 mph 18.4 mph N/A   Clear
2:54 PM 66.9 °F 36.0 °F 32% 30.23 in 10.0 mi WSW 10.4 mph - N/A   Clear
3:54 PM 64.9 °F 39.0 °F 39% 30.22 in 10.0 mi SW 6.9 mph - N/A   Clear
4:54 PM 57.9 °F 37.9 °F 47% 30.22 in 10.0 mi SSW 6.9 mph - N/A   Clear
5:54 PM 54.0 °F 37.9 °F 55% 30.23 in 10.0 mi SSW 4.6 mph - N/A   Clear
6:54 PM 53.1 °F 37.0 °F 55% 30.24 in 10.0 mi SSW 4.6 mph - N/A   Clear
7:54 PM 53.1 °F 36.0 °F 52% 30.24 in 10.0 mi SW 6.9 mph - N/A   Clear
8:54 PM 52.0 °F 36.0 °F 54% 30.25 in 10.0 mi SW 4.6 mph - N/A   Clear
9:54 PM 50.0 °F 36.0 °F 59% 30.26 in 10.0 mi SW 5.8 mph - N/A   Clear
10:54 PM 51.8 °F 37.4 °F 58% 30.26 in 10.0 mi WSW 4.6 mph - N/A   Clear
11:54 PM 48.9 °F 36.0 °F 61% 30.26 in 10.0 mi SSW 4.6 mph - N/A   Clear